Date,TemperatureHighF,TemperatureAvgF,TemperatureLowF,DewpointHighF,DewpointAvgF,DewpointLowF,HumidityHigh,HumidityAvg,HumidityLow,PressureMaxIn,PressureMinIn,WindSpeedMaxMPH,WindSpeedAvgMPH,GustSpeedMaxMPH,PrecipitationSumIn
2013-1-1,43.1,41.0,37.3,30.1,14.0,2.7,70,37,20,30.11,29.95,2,0,3,0.55
2013-1-2,43.8,40.8,37.5,34.3,19.2,3.7,69,45,21,30.13,29.90,2,0,5,0.05
2013-1-3,41.8,36.9,30.8,33.0,14.7,0.8,73,46,21,30.28,30.08,2,0,11,0.01
2013-1-4,42.2,33.6,28.0,24.6,21.8,19.6,74,63,41,30.38,30.25,3,1,6,0.00
2013-1-5,46.0,35.7,27.6,29.6,23.6,18.9,74,62,38,30.39,30.22,3,0,11,0.01
2013-1-6,51.2,40.0,35.1,38.3,28.0,3.8,72,63,25,30.22,30.03,3,0,8,0.00
2013-1-7,49.4,36.5,26.9,30.5,25.0,10.3,73,64,43,30.41,30.19,4,1,6,0.00
2013-1-8,49.9,34.5,22.7,38.9,13.9,-6.5,72,45,22,30.47,30.37,1,0,3,0.00
2013-1-9,51.4,46.8,40.5,25.0,10.9,3.9,36,23,18,30.46,30.38,0,0,2,0.00
2013-1-10,60.8,49.9,40.1,49.0,23.2,3.6,69,38,20,30.50,30.32,2,0,5,0.02
2013-1-11,52.5,50.1,47.0,15.7,11.6,6.8,23,21,19,30.32,30.11,1,0,2,0.41
2013-1-12,66.7,56.9,49.2,41.6,19.9,8.6,42,24,17,30.14,30.05,1,0,6,0.00
2013-1-13,65.9,58.3,49.3,54.2,28.6,9.9,66,36,16,30.08,30.00,3,0,9,0.03
2013-1-14,59.9,56.7,46.6,21.4,16.6,7.6,23,21,17,30.10,29.99,2,0,3,0.80
2013-1-15,51.8,47.8,43.8,16.1,11.1,7.2,24,22,20,30.10,30.01,1,0,5,0.79
2013-1-16,54.8,49.9,44.0,20.0,15.0,8.5,26,24,23,30.01,29.93,1,0,1,0.35
2013-1-17,52.1,43.7,32.8,16.4,9.3,0.8,33,24,22,30.17,29.75,3,0,10,1.92
2013-1-18,45.7,33.7,27.8,29.9,19.3,-1.9,73,57,27,30.50,30.17,3,1,8,0.01
2013-1-19,50.2,33.8,23.4,33.2,12.4,-6.7,71,43,24,30.49,30.19,1,0,3,0.00
2013-1-20,56.8,41.5,28.7,36.7,25.2,-0.5,74,53,27,30.19,30.05,3,1,5,0.00
2013-1-21,51.8,36.6,26.5,31.7,15.9,-5.2,72,44,22,30.08,29.95,3,1,9,0.00
2013-1-22,32.1,26.3,20.7,15.6,6.6,0.0,60,44,26,30.27,30.01,3,1,10,0.00
2013-1-23,43.9,29.3,20.2,23.8,15.1,5.1,72,56,40,30.35,30.09,2,0,4,0.00
2013-1-24,39.6,32.0,22.2,30.1,15.9,2.1,71,53,25,30.45,30.01,5,1,12,0.00
2013-1-25,35.8,25.4,19.2,15.5,6.7,-1.9,73,47,21,30.47,30.11,2,0,5,0.00
2013-1-26,45.9,36.1,28.0,27.7,18.6,-0.5,72,52,21,30.33,30.12,3,0,6,0.01
2013-1-27,40.6,31.8,23.1,29.7,17.1,-6.6,74,57,25,30.53,30.33,2,0,4,0.01
2013-1-28,63.6,45.6,33.1,49.7,30.0,5.4,71,56,20,30.46,30.21,4,1,9,0.00
2013-1-29,67.8,52.2,38.3,55.2,24.8,1.3,68,38,17,30.23,29.99,3,0,5,0.08
2013-1-30,61.2,57.4,44.7,32.2,14.5,7.4,61,19,16,29.99,29.40,4,1,10,2.09
2013-1-31,45.0,35.3,27.2,33.0,23.3,16.3,74,62,41,30.01,29.46,3,1,8,0.00